Theta_e
335 334 334 335 334 332 332 332 331 331 331 334 334 334 334 334 333 333 333 333 332 332 333 333 333 332 332 333 333 333 333 333 333 332 332 332 332 332 332 332 332 332 332 333 333 333 333 333 333 333 333 333 333 333 334 333 332 331 331 331 331 329 329 328 326 324 320 316 312 311 313 315 316 316 316 318 321 324 326 327 326 326 327 328 327
334 333 334 335 335 334 333 332 332 331 331 333 334 334 334 334 334 334 334 334 333 333 333 333 332 332 332 332 333 333 333 333 332 332 332 332 332 332 332 332 332 333 333 333 333 333 334 334 334 334 333 333 333 333 333 332 332 332 331 331 331 330 330 330 329 328 324 319 315 311 312 315 316 317 317 318 321 323 325 326 327 326 327 327 327
333 333 334 335 334 334 333 333 333 332 331 332 333 333 332 332 333 333 333 333 333 333 332 332 332 332 332 332 332 332 333 332 332 332 333 333 333 333 333 333 333 333 333 333 333 333 333 333 334 333 333 333 332 332 332 331 331 331 331 331 331 331 330 330 330 330 328 323 317 312 311 313 316 316 317 318 320 323 324 325 326 326 327 328 328
333 334 334 334 332 333 333 333 334 333 332 332 332 332 331 332 332 332 332 332 332 332 332 331 331 332 331 332 332 332 332 332 332 332 332 332 332 332 332 332 331 332 332 331 332 332 332 332 332 332 332 333 332 332 332 332 331 331 332 332 331 331 331 331 330 330 330 327 321 314 311 312 315 316 317 317 319 322 324 325 325 326 327 328 328
333 334 334 333 333 333 333 333 333 333 333 332 331 332 331 332 332 331 331 331 331 330 330 330 330 330 330 330 330 330 331 330 330 329 329 329 329 329 329 330 331 331 331 331 331 331 331 331 331 331 332 332 332 333 332 332 331 331 331 332 331 331 331 331 331 330 330 329 326 319 312 312 314 315 317 317 318 321 323 325 325 326 327 328 328
331 333 334 334 333 333 333 333 333 332 333 333 332 332 331 331 331 331 330 329 329 327 327 328 328 328 328 328 328 328 328 326 326 327 328 329 329 330 330 331 331 331 331 332 331 331 331 331 330 331 332 332 332 333 332 331 331 330 331 331 331 332 332 331 331 330 330 330 329 324 316 312 313 315 316 317 317 319 323 325 325 326 327 327 327
331 331 333 333 333 333 333 332 333 332 332 331 331 331 330 329 329 329 329 328 328 327 328 328 328 328 328 327 327 326 325 324 325 328 329 330 331 331 331 331 331 331 331 331 331 331 331 330 330 331 331 331 332 332 332 331 330 330 330 331 331 332 332 332 331 331 330 329 330 328 323 315 312 314 315 317 317 318 322 325 325 326 326 327 327
332 332 333 334 334 333 333 332 332 332 331 330 330 330 329 329 329 328 328 328 328 328 328 329 328 328 327 326 325 324 324 325 327 330 331 332 332 333 333 332 332 331 332 332 331 331 330 330 330 330 330 331 331 331 331 331 331 330 330 330 331 332 332 332 331 331 330 330 329 329 328 322 314 314 316 317 317 317 320 324 325 325 326 326 327
332 333 334 334 332 331 331 331 331 330 330 330 330 330 330 330 330 329 329 328 328 328 328 327 327 326 325 324 324 324 324 326 329 330 331 332 332 333 333 333 332 331 332 332 332 332 331 331 331 330 330 331 331 330 330 330 331 331 330 330 330 331 331 332 332 331 331 330 329 329 329 327 319 315 317 317 317 317 318 322 325 325 326 326 326
332 331 333 333 331 331 331 330 330 330 330 330 330 330 330 329 329 329 328 328 328 327 326 326 324 323 323 323 324 324 325 327 329 330 331 332 333 333 333 332 332 331 332 332 332 332 332 331 331 330 330 331 330 331 331 330 331 331 331 330 330 330 330 330 331 331 331 330 330 329 329 329 324 317 317 320 319 317 317 321 324 325 325 326 326
332 331 332 332 332 332 332 330 329 330 330 330 330 329 329 328 328 328 328 328 327 327 325 324 322 321 322 322 324 324 325 327 329 330 331 332 333 332 332 332 331 332 332 332 331 331 331 331 330 329 330 329 330 331 331 330 330 331 331 331 331 331 330 330 330 330 331 330 330 330 329 329 328 321 317 321 322 319 316 318 323 325 325 325 326
332 332 333 333 333 331 330 330 329 329 329 329 329 328 328 327 327 327 328 328 327 326 324 322 320 320 320 321 323 323 324 326 329 330 331 332 332 330 330 330 330 330 330 330 330 329 329 328 328 328 328 328 328 330 330 329 329 329 331 332 332 331 331 330 330 330 330 330 330 330 330 329 329 326 319 319 323 323 318 316 321 325 325 325 325
331 332 333 332 332 331 330 330 329 329 330 329 329 328 327 327 327 326 326 327 326 324 321 319 317 316 316 317 319 319 322 328 331 330 329 329 329 329 329 328 328 328 329 329 328 327 327 326 325 326 326 326 327 328 328 328 328 328 329 330 331 332 331 330 330 330 330 329 330 330 330 329 329 329 324 319 321 324 322 318 318 323 325 325 325
332 332 332 332 331 332 331 331 330 330 330 330 329 327 326 325 324 324 324 323 322 319 316 315 314 313 313 314 315 315 320 329 333 331 328 326 324 325 326 327 326 325 325 326 327 326 325 324 323 324 325 325 325 326 326 327 327 328 328 329 330 331 331 331 330 330 330 329 330 329 330 330 329 329 326 320 319 322 323 321 319 320 323 325 325
333 333 333 332 332 332 332 331 330 330 329 328 326 324 322 321 319 319 319 317 315 314 313 313 312 312 312 313 313 314 317 324 329 328 325 322 320 318 319 320 319 318 318 320 322 322 322 321 322 322 324 324 324 324 324 325 325 326 326 327 328 329 330 330 330 330 331 330 331 331 330 330 330 330 327 321 318 320 323 324 321 319 321 324 325
332 331 331 331 331 331 331 331 330 329 328 325 322 319 317 315 314 314 313 312 311 311 311 311 311 311 311 312 313 315 315 316 317 318 317 316 315 312 312 311 310 309 309 310 312 314 316 318 319 320 320 321 322 323 323 323 323 323 323 323 326 327 328 328 328 329 330 331 331 331 331 331 330 330 329 324 318 318 321 323 324 320 319 322 324
329 328 328 328 328 328 329 329 328 326 323 319 317 315 313 312 312 311 311 310 310 309 309 309 309 308 308 309 311 312 313 311 309 309 310 309 308 307 306 304 303 303 304 304 305 308 312 314 316 317 317 318 320 320 321 321 321 321 321 321 323 325 326 325 325 327 328 330 330 330 331 331 330 330 330 328 321 318 319 321 324 323 320 320 323
327 326 325 325 326 326 326 324 322 319 316 314 313 312 311 311 310 310 309 308 307 306 305 305 306 306 306 308 310 310 310 308 306 305 305 304 304 304 302 300 300 301 301 300 302 307 310 312 313 314 314 315 317 316 317 317 318 318 316 317 319 321 324 325 324 324 326 328 329 330 330 330 330 330 330 330 325 319 318 319 321 323 322 320 320
325 324 323 323 323 322 320 318 316 314 312 312 311 310 310 310 309 308 306 304 303 302 302 303 303 304 306 308 308 308 307 305 303 302 303 303 302 301 300 299 299 299 299 299 300 304 308 310 311 311 312 313 314 313 312 313 314 313 311 312 314 315 320 324 324 324 324 326 328 329 330 329 330 330 330 330 327 321 319 319 318 321 322 321 319
324 322 321 320 318 316 315 313 312 312 311 311 310 309 309 307 306 304 302 301 300 300 300 301 302 303 305 305 306 306 305 302 300 300 301 301 300 300 299 298 298 298 298 298 298 299 302 304 305 305 305 307 308 307 306 306 307 307 308 309 309 308 313 319 323 324 324 324 326 327 328 329 330 330 330 330 329 324 320 319 318 318 321 321 320
321 319 317 315 313 312 311 311 311 311 310 310 309 308 306 303 302 300 300 300 299 300 300 300 302 303 305 305 305 305 303 300 298 298 299 299 298 299 299 298 298 298 298 297 297 298 298 299 299 299 299 300 300 300 300 300 301 302 303 304 304 305 307 312 318 322 323 323 325 326 327 329 329 330 330 330 331 327 321 320 319 316 317 320 320
317 315 313 311 311 310 310 310 310 309 309 308 306 304 302 300 300 299 299 299 299 299 300 300 302 303 304 304 302 301 300 300 300 300 298 297 297 297 297 298 298 297 297 297 297 297 298 298 298 298 298 298 298 298 298 298 298 298 299 300 300 301 303 306 311 317 321 322 323 325 326 328 328 329 330 329 330 329 324 321 320 318 316 317 320
314 312 311 310 310 309 309 309 309 308 307 304 302 300 299 299 299 299 299 299 299 299 299 300 301 301 301 300 299 299 300 301 302 300 297 296 296 296 297 297 297 297 297 297 297 297 297 297 298 298 298 298 298 298 298 298 298 298 298 298 298 299 299 301 304 310 316 319 321 323 324 326 327 328 329 329 329 330 327 323 323 322 318 317 319
312 311 310 309 309 308 308 308 307 305 302 300 299 299 299 299 298 298 298 298 298 298 298 299 299 299 298 298 298 298 299 300 299 297 296 296 296 296 297 297 297 297 297 297 297 297 297 297 298 298 298 298 298 298 298 298 298 298 298 298 298 298 298 298 299 303 309 314 317 319 322 324 325 327 329 329 329 329 328 326 325 325 322 319 319
311 310 309 308 307 307 305 304 303 301 300 299 299 299 298 298 298 298 298 298 298 298 298 298 297 297 297 297 297 297 297 298 297 296 296 296 296 296 296 296 297 297 297 297 297 297 297 297 297 298 298 298 298 299 299 299 299 299 299 299 299 299 298 299 298 299 302 308 313 315 318 322 324 326 328 329 330 330 329 327 327 326 325 321 319
310 309 308 307 305 303 302 300 300 299 299 298 298 298 298 298 298 298 298 297 297 297 298 298 297 296 296 297 297 296 296 296 296 296 296 296 296 296 296 296 296 297 297 297 297 297 298 298 297 298 298 298 298 299 298 299 299 299 299 299 299 299 299 299 299 298 299 303 308 312 315 318 322 324 326 328 329 330 329 328 328 327 327 324 320
308 307 306 304 302 300 299 299 299 298 298 298 298 298 298 298 298 298 297 297 297 297 298 299 298 297 296 296 296 296 296 296 296 295 296 296 296 296 296 296 297 297 297 297 297 297 297 298 298 298 298 298 298 298 298 298 298 299 299 299 299 299 299 299 299 299 299 299 303 309 312 315 319 321 324 326 327 329 329 328 328 328 327 327 323
306 305 303 301 299 299 298 298 298 298 298 298 298 298 298 298 298 298 297 297 297 297 298 299 299 297 296 296 296 296 296 296 295 295 296 296 296 296 296 296 296 297 297 297 297 297 297 297 297 298 298 298 298 298 298 298 298 298 298 299 299 299 299 299 299 299 299 299 300 304 309 312 316 319 321 323 325 327 327 327 328 328 328 328 325
304 302 300 299 298 298 298 298 298 298 298 298 298 298 298 298 298 298 297 297 296 297 297 297 298 297 296 296 295 296 295 295 295 295 296 296 295 296 296 296 296 296 297 297 297 297 297 297 297 297 298 298 298 298 298 298 298 298 298 298 298 299 299 299 299 299 299 299 299 300 304 309 312 315 318 321 323 325 327 327 328 328 328 328 327
301 300 298 298 298 298 298 298 298 298 298 298 298 298 298 298 298 298 297 297 296 296 297 297 297 297 296 295 295 295 295 295 295 295 295 295 295 295 295 296 296 296 295 296 296 296 296 297 297 297 297 298 298 298 298 298 298 298 298 298 298 298 299 298 299 299 299 299 299 299 300 304 309 312 315 318 321 323 325 326 327 327 328 328 328
299 298 298 298 298 298 298 297 297 297 298 298 298 298 298 297 297 297 297 297 296 296 297 297 297 296 295 295 295 295 295 295 295 295 295 295 295 295 295 296 296 295 295 295 295 295 296 296 297 297 297 297 297 298 298 298 298 298 298 298 298 298 298 299 299 299 299 299 299 299 299 300 304 309 313 316 319 321 323 324 325 325 325 326 328
298 298 298 297 297 298 297 297 297 298 298 298 298 298 297 297 296 297 298 298 297 296 296 296 296 295 295 295 294 294 295 295 295 295 295 295 295 295 295 295 295 295 295 295 295 295 295 295 296 296 296 296 297 297 297 298 298 298 298 298 298 298 298 298 299 299 299 299 299 299 299 299 300 304 309 314 316 318 321 323 324 324 324 325 326
297 297 297 297 297 297 297 297 297 297 298 298 298 298 297 297 297 298 299 298 297 296 296 295 295 295 294 294 294 294 294 294 295 295 295 295 294 294 294 295 295 295 295 295 295 295 295 295 295 295 295 295 296 296 296 297 297 297 297 297 298 298 298 298 298 299 299 299 299 299 299 299 299 300 304 310 314 316 318 321 323 323 323 324 324
297 297 297 297 297 297 297 297 297 297 297 297 297 297 297 297 297 298 297 297 297 296 295 294 294 294 294 294 294 294 294 294 294 294 294 294 294 294 294 294 295 295 294 295 295 295 295 295 295 295 295 295 295 296 296 296 297 297 297 297 297 297 298 297 298 298 299 299 299 299 299 299 299 299 300 305 310 313 315 317 320 322 322 322 323
297 297 297 297 297 297 297 297 297 297 297 297 296 296 297 297 298 298 297 296 297 296 295 294 294 294 294 294 294 294 294 294 294 294 294 294 294 294 293 294 294 294 294 294 295 295 295 295 295 295 295 295 295 295 295 296 296 296 297 297 297 297 297 297 297 297 298 299 299 299 299 299 299 299 299 301 306 311 313 313 316 319 321 321 322
297 297 297 297 297 297 297 297 297 297 297 296 296 296 297 297 299 299 297 296 296 296 295 295 294 294 294 294 293 293 294 294 294 294 294 293 293 293 293 293 294 294 294 294 295 295 295 295 295 295 295 295 295 295 295 295 295 296 296 296 296 296 296 296 296 296 296 297 298 298 299 299 299 299 299 299 301 306 310 312 313 315 319 321 321
297 297 297 297 297 297 297 297 297 297 297 296 296 296 297 297 299 299 297 296 296 297 297 296 295 294 295 295 294 293 293 294 293 294 293 293 293 293 293 294 294 294 294 294 294 295 295 295 295 294 294 295 295 295 295 295 295 295 296 296 296 296 296 296 296 296 295 295 297 298 298 298 299 299 299 299 299 302 306 310 312 313 315 318 321
297 297 297 297 297 297 297 297 297 296 296 296 296 296 296 297 298 298 296 296 298 299 299 298 297 296 296 297 295 293 293 294 293 293 293 293 293 293 294 294 294 294 294 294 294 294 294 295 294 294 294 295 295 295 295 295 295 295 295 296 296 295 295 295 295 295 295 295 295 297 298 298 298 298 299 299 299 300 302 306 310 312 312 315 318
297 297 297 297 297 297 297 297 296 296 296 296 296 296 296 296 297 297 296 297 299 300 300 299 298 298 298 298 296 293 293 293 293 293 293 293 293 293 294 294 294 294 294 294 294 294 294 295 294 294 294 294 294 295 294 295 295 295 295 295 296 296 295 295 295 295 295 295 295 295 296 297 297 298 298 298 299 299 300 302 307 310 311 312 316
297 297 297 297 297 297 297 296 296 296 296 296 295 295 296 296 297 297 297 298 299 300 299 299 299 299 298 298 297 294 292 293 292 293 293 293 293 293 294 294 294 294 294 294 294 295 294 294 294 294 294 294 294 294 294 295 295 295 295 295 295 296 295 295 295 295 295 295 295 295 295 296 296 297 298 298 299 299 299 300 303 307 310 311 313
296 297 297 297 296 296 296 296 296 296 295 296 295 295 295 295 296 297 297 298 299 300 299 299 299 299 298 298 297 294 292 293 293 293 293 293 293 294 293 294 294 294 294 294 294 294 294 294 294 294 294 294 294 294 294 295 295 295 295 295 295 295 295 295 295 295 295 295 295 295 295 295 295 296 297 298 298 299 299 299 300 303 308 309 311
296 297 297 296 296 296 296 296 296 296 295 295 295 295 295 295 296 297 296 297 298 299 299 298 299 299 298 298 297 294 292 293 293 293 293 293 293 293 293 293 293 293 294 294 294 294 294 294 294 294 294 294 294 294 294 295 295 295 295 295 295 295 295 295 295 295 295 295 294 294 294 294 294 296 297 297 298 299 299 299 299 301 304 307 308
296 296 296 296 296 296 296 295 295 295 295 295 295 295 295 295 296 297 297 297 298 298 297 298 299 298 298 298 296 293 292 293 293 293 293 292 292 292 292 292 293 293 293 294 294 294 294 294 294 294 294 294 294 294 295 295 295 295 295 295 295 295 295 295 295 295 294 294 294 294 294 295 294 295 296 297 298 298 298 299 299 300 301 303 305
296 296 296 296 296 295 295 295 295 295 295 295 295 294 295 295 296 297 298 298 298 298 297 297 298 298 298 297 294 293 293 293 293 293 293 292 292 292 292 292 292 293 293 293 294 294 294 294 294 294 294 294 294 295 295 295 295 295 295 295 295 295 295 295 295 295 294 294 294 293 294 295 294 294 296 297 297 297 298 298 299 300 300 301 302
296 296 296 295 296 296 295 295 295 295 295 294 294 294 294 295 296 296 297 298 299 298 296 297 298 298 297 295 293 293 293 293 293 293 292 292 291 291 291 291 292 292 293 293 293 293 293 293 293 294 295 294 294 295 295 295 295 295 295 295 295 295 295 295 294 294 294 294 293 293 294 295 295 294 295 296 297 296 297 298 298 299 300 300 301
296 295 295 295 296 295 295 295 295 295 295 294 294 293 293 293 294 295 296 297 299 298 297 296 297 297 296 294 293 293 294 293 293 293 292 292 291 291 291 291 291 292 292 292 293 292 293 293 294 295 295 295 295 295 295 295 295 295 295 295 295 295 295 294 294 294 294 293 293 293 294 294 294 294 294 296 296 296 296 297 298 299 299 300 300
295 295 295 295 296 295 295 295 294 294 294 294 293 293 293 293 293 294 295 297 298 298 297 296 296 296 294 293 293 293 293 293 293 293 292 291 290 290 291 291 291 292 292 292 292 293 293 294 295 295 296 296 295 295 295 295 295 295 295 295 295 295 294 294 293 293 294 294 293 293 293 294 294 294 294 296 296 296 296 297 297 298 299 300 300
295 295 295 295 295 295 294 294 294 294 294 293 293 293 293 293 293 293 294 296 296 297 296 295 295 294 293 293 293 293 293 293 293 292 291 291 290 290 291 291 292 292 292 292 293 293 294 295 296 296 296 296 296 296 296 295 295 295 295 295 295 294 294 294 293 293 294 294 294 293 293 294 295 295 295 296 296 295 296 296 296 297 299 299 300
295 295 295 295 294 294 294 293 293 294 293 293 293 293 293 293 292 292 293 294 295 295 295 294 294 293 293 293 293 293 293 293 293 292 291 290 290 290 291 291 291 292 292 293 293 294 295 296 296 296 296 297 296 296 296 296 295 295 295 295 295 294 293 293 293 293 294 295 295 293 293 294 295 295 295 296 296 296 296 296 296 297 299 300 300
295 294 294 294 294 294 293 293 293 293 293 293 293 293 293 293 292 292 292 292 293 293 293 293 293 293 293 293 293 293 293 294 292 291 291 290 290 290 290 291 291 292 292 293 293 293 294 296 296 296 296 296 296 296 295 295 295 295 295 295 294 294 293 293 293 292 294 295 295 294 293 293 295 295 294 295 296 296 296 296 297 298 299 299 300
294 294 294 294 294 293 293 293 293 294 294 294 293 293 293 292 292 292 293 293 293 293 293 293 293 293 293 292 292 293 293 293 292 291 291 290 290 290 290 290 291 291 292 293 293 294 294 295 296 295 296 296 296 296 295 295 295 295 295 294 294 294 293 293 293 292 292 294 295 294 293 294 295 296 295 294 294 296 297 297 297 298 299 300 301
Wind_Speed
1 2 4 4 4 3 2 1 1 1 1 1 1 1 3 3 4 4 4 4 5 6 6 7 8 9 10 10 10 12 13 14 15 15 16 17 17 16 16 17 18 20 21 22 23 24 26 26 26 26 27 27 27 25 22 20 20 21 21 20 18 16 15 12 11 12 12 12 12 12 14 12 12 12 12 11 11 11 10 10 9 9 8 8 8
1 1 2 3 3 2 2 1 2 2 1 2 2 2 3 4 5 6 6 6 7 8 8 9 10 11 12 12 12 14 15 15 16 17 16 16 17 17 17 19 20 21 22 23 24 25 26 27 26 26 25 26 26 24 21 20 21 21 22 21 19 17 15 14 13 12 12 13 13 12 14 14 13 13 13 12 12 12 11 10 10 10 10 10 9
1 1 2 2 2 2 1 1 2 2 2 3 3 3 4 5 5 6 7 7 7 8 8 9 10 12 13 13 14 15 16 16 17 18 17 17 17 18 19 21 21 22 22 23 24 24 25 26 26 25 24 24 25 23 21 20 21 22 21 21 20 18 17 17 15 13 13 13 13 13 14 15 14 14 13 13 14 13 12 12 11 11 11 11 10
1 2 1 1 1 1 1 1 2 3 3 4 4 4 4 4 5 6 7 7 7 8 8 9 10 11 12 12 13 14 14 15 16 16 17 17 17 18 19 20 20 20 20 21 21 21 22 22 22 22 21 21 23 23 21 20 21 22 22 21 21 20 18 17 16 15 14 13 14 14 14 16 16 15 15 14 15 15 13 13 13 13 12 12 11
3 3 2 1 1 1 1 2 2 2 3 4 4 4 4 4 5 6 7 7 7 8 9 10 10 11 11 11 12 12 13 13 14 15 16 16 16 16 17 17 17 17 18 17 17 17 17 18 18 18 19 19 19 21 21 18 19 21 22 22 22 21 20 19 18 16 15 14 14 15 15 16 17 16 16 15 16 16 15 14 13 13 14 14 13
5 4 3 2 2 2 1 2 2 3 4 4 4 5 4 5 6 6 7 7 8 10 10 11 11 11 11 10 11 11 11 12 13 13 13 13 13 13 14 14 14 15 16 15 15 15 15 16 17 17 18 18 19 19 19 17 17 19 21 21 21 22 22 21 19 18 17 14 14 15 15 16 17 18 17 16 16 18 17 15 15 14 15 15 14
5 6 5 5 5 4 4 4 4 5 5 5 4 4 5 6 6 6 7 8 10 11 12 12 11 11 10 10 10 10 11 12 11 9 8 8 8 10 11 13 14 15 15 14 14 14 15 17 18 19 19 19 20 20 20 19 17 18 19 20 21 22 22 23 22 20 19 16 14 15 16 16 17 18 18 17 17 19 18 16 16 16 15 16 15
5 6 6 6 6 6 6 5 5 5 5 4 4 4 5 6 7 7 8 10 11 12 12 12 12 11 10 10 10 10 11 10 7 5 4 4 5 7 9 11 12 13 12 12 12 12 14 16 17 19 19 19 19 20 21 21 20 19 18 18 19 20 22 24 24 22 21 19 16 15 16 16 17 19 19 18 18 19 20 17 17 17 17 17 16
6 6 6 6 6 6 6 4 4 5 5 5 5 5 6 7 8 10 11 12 13 13 13 13 12 11 11 10 10 10 9 8 5 4 4 3 4 6 8 10 10 9 11 13 13 12 11 12 14 15 16 16 17 17 18 21 22 22 21 18 17 19 21 22 23 24 23 21 17 16 16 16 17 18 19 19 18 19 21 19 18 18 18 18 17
7 7 7 7 7 6 5 4 5 6 7 7 7 8 9 9 10 11 13 14 15 14 14 13 12 11 10 10 10 9 8 7 6 6 7 6 6 7 9 11 11 11 12 14 14 14 13 12 13 13 14 16 15 14 15 18 21 24 24 21 17 17 19 20 22 24 24 23 20 18 18 16 16 18 19 19 18 20 21 20 19 19 19 19 19
7 7 8 9 9 8 6 5 6 7 8 9 10 10 11 11 11 11 13 15 15 15 15 14 13 12 11 10 9 9 8 8 8 8 8 8 7 7 9 10 11 12 13 13 13 13 14 13 13 14 15 16 15 14 14 14 16 21 25 25 21 18 17 18 20 22 23 23 22 20 21 18 16 17 19 19 18 19 22 22 21 21 21 20 20
7 8 9 9 10 9 8 7 8 8 9 10 12 12 12 12 12 12 13 15 16 16 16 15 15 13 12 10 8 9 9 8 7 6 7 8 7 6 7 8 9 10 11 10 11 11 12 12 14 15 15 16 14 13 14 12 12 17 22 25 24 22 20 19 20 21 23 24 23 23 22 20 17 16 18 21 19 18 21 24 23 22 22 22 21
8 9 10 10 10 10 9 9 9 10 10 12 13 13 13 13 13 13 13 14 15 16 15 15 15 13 11 7 7 10 10 7 5 5 4 6 8 8 9 9 10 10 10 9 9 10 11 12 14 15 16 16 14 14 14 14 14 17 20 20 20 20 20 19 21 21 23 25 24 25 25 22 20 18 18 20 22 19 19 23 25 24 23 23 23
9 10 11 11 11 10 10 11 11 11 12 13 14 15 14 13 12 12 13 13 14 14 14 13 13 14 13 10 8 9 9 8 6 5 5 8 10 11 12 13 13 13 13 12 12 12 13 13 14 15 15 15 15 15 16 16 17 19 20 19 18 18 17 17 18 19 20 24 27 28 27 25 23 21 18 19 23 22 19 21 24 27 26 24 24
11 11 12 12 12 11 12 12 12 12 13 13 14 13 12 10 9 9 10 11 11 12 13 13 13 13 13 12 11 9 7 8 8 6 10 13 14 14 14 15 16 17 17 16 15 14 14 13 13 15 16 15 15 15 16 17 18 19 20 20 18 16 16 15 15 15 15 20 27 28 27 27 25 24 19 18 23 24 22 21 22 27 28 26 25
11 11 12 12 12 12 13 13 13 13 13 12 11 9 8 8 6 6 7 8 9 10 11 12 12 12 10 9 10 9 7 8 10 9 11 13 14 15 16 17 17 17 16 15 14 13 12 11 11 14 16 17 15 15 15 16 17 18 18 19 18 16 15 15 15 15 14 15 20 25 28 28 27 27 24 19 21 25 25 23 22 25 29 29 27
11 10 11 11 12 12 12 13 13 12 10 9 7 6 6 7 6 6 5 6 6 7 8 10 11 10 9 7 6 6 9 14 16 13 11 11 13 14 14 15 15 14 13 12 11 9 10 10 10 12 16 19 18 16 16 16 16 17 18 18 19 17 15 15 16 16 16 14 14 19 27 30 29 29 28 23 21 24 27 27 25 24 27 30 30
11 10 10 10 10 10 10 10 9 8 7 6 6 5 6 6 6 6 6 6 6 6 6 6 7 7 6 6 5 5 9 14 15 15 15 12 10 12 13 13 13 12 12 10 8 8 8 9 10 11 15 19 20 19 19 18 18 18 18 18 18 18 16 16 16 16 16 15 14 15 20 27 31 31 30 28 24 23 27 29 27 25 25 28 31
10 9 8 7 7 7 6 6 5 5 6 6 5 5 6 6 6 6 6 7 6 5 4 4 4 5 5 5 4 4 7 10 12 15 19 16 12 13 13 15 16 14 13 12 10 9 9 11 12 14 16 19 21 21 21 21 20 20 19 18 18 17 16 17 17 17 17 15 16 17 16 20 28 32 32 30 27 24 26 29 29 27 26 27 29
7 6 5 4 4 4 4 5 5 5 6 5 5 5 6 6 6 6 6 6 6 5 5 5 5 6 5 4 3 3 4 6 8 10 14 19 19 18 17 17 17 16 16 14 12 12 12 12 14 16 18 19 20 21 22 22 22 21 20 20 20 18 16 17 16 17 18 17 17 18 18 18 22 29 33 32 29 27 26 27 29 29 28 27 27
6 5 4 4 4 4 5 6 6 5 5 4 4 4 5 5 5 5 5 6 7 6 6 7 7 7 6 5 5 5 5 6 6 8 11 16 20 23 24 22 19 18 17 16 15 13 13 14 15 17 17 18 19 19 20 20 21 21 20 20 20 19 18 17 16 16 17 18 18 17 18 18 18 22 30 34 33 30 28 27 27 28 29 29 28
6 6 6 5 5 5 6 5 5 5 4 4 4 3 3 4 4 4 5 6 7 7 7 8 8 8 9 8 8 9 9 10 12 13 13 14 17 22 24 25 25 23 20 19 18 16 14 15 16 18 18 18 19 19 20 20 20 20 20 20 19 19 19 18 16 16 16 17 18 18 18 17 18 19 23 32 37 34 30 29 28 28 28 30 29
7 7 7 6 5 5 5 5 5 4 4 3 3 2 2 2 3 4 5 7 7 7 7 8 8 9 10 10 11 12 12 14 15 15 16 16 18 20 22 23 24 25 24 22 20 18 18 19 19 19 20 20 21 21 21 21 21 21 21 21 20 19 20 19 17 16 16 16 16 16 17 17 19 21 21 26 35 38 34 31 30 29 28 29 30
9 8 7 6 5 4 4 5 5 4 3 2 1 0 1 2 3 4 5 7 7 7 7 8 8 9 10 10 11 12 13 15 15 14 16 16 17 19 21 23 23 23 24 23 21 19 21 22 22 22 23 24 23 22 22 22 22 22 23 22 22 21 20 19 18 16 16 16 14 13 15 16 18 22 22 21 28 37 37 33 32 31 29 29 30
9 8 7 6 5 5 5 5 5 3 2 2 2 2 2 3 4 5 6 7 7 7 8 9 9 10 10 10 11 13 14 15 14 14 15 15 16 19 20 21 23 24 23 23 22 21 21 22 24 24 24 26 26 25 23 22 21 22 24 24 23 22 21 20 19 17 16 16 14 12 13 15 16 20 23 22 23 31 36 36 34 33 33 31 30
9 8 7 6 5 5 5 5 4 3 3 3 3 3 3 3 4 5 7 8 7 7 8 9 9 10 11 11 12 14 14 14 15 15 15 16 18 20 21 21 22 23 23 22 23 24 24 25 25 26 26 25 26 27 26 24 22 22 23 25 25 24 23 21 19 18 17 15 14 13 13 13 15 17 21 23 23 28 35 38 38 36 36 34 32
9 8 7 6 6 5 5 5 4 4 4 4 4 3 3 3 4 5 7 8 6 7 8 9 11 12 11 12 12 12 13 14 14 15 16 18 19 21 23 24 24 25 25 23 23 25 27 28 26 27 29 28 26 27 27 26 25 23 23 24 25 26 25 23 21 20 18 16 14 15 14 13 14 17 19 20 22 26 30 35 41 40 38 36 34
8 8 7 7 6 6 6 6 5 5 5 5 4 4 2 3 4 5 7 7 6 6 8 10 12 12 12 12 11 12 12 12 12 14 16 18 20 21 22 23 23 26 27 28 27 26 28 31 29 27 29 30 30 28 27 28 28 27 26 24 25 26 27 27 24 21 20 18 16 16 16 13 13 16 18 19 19 23 25 28 35 39 39 38 37
9 8 8 8 8 8 7 6 6 5 5 5 4 4 3 3 4 5 7 7 5 6 7 10 13 12 11 12 12 12 12 10 11 14 16 19 20 21 21 21 20 21 23 26 30 30 29 31 32 32 30 30 31 31 30 29 30 30 30 28 27 26 27 28 27 24 22 20 19 18 17 15 14 14 16 19 19 20 23 25 30 35 37 39 40
10 9 9 9 9 8 7 7 6 6 5 5 4 4 3 3 4 5 7 7 5 6 8 11 12 11 11 12 12 12 11 11 13 16 18 19 20 21 21 20 19 18 18 20 26 29 30 31 32 34 34 33 32 33 33 32 32 32 32 32 31 29 28 28 28 27 24 22 22 20 18 17 16 15 15 18 19 19 20 23 29 34 36 38 41
10 10 9 9 9 8 8 6 6 5 5 4 4 3 3 3 4 5 6 6 5 8 11 12 12 11 12 12 11 11 12 14 15 17 18 19 20 21 21 20 19 18 19 19 23 27 29 31 33 34 36 36 35 35 35 35 35 34 34 35 35 33 30 28 27 28 27 25 24 23 21 19 18 18 17 17 19 20 20 20 24 32 36 37 39
11 10 9 9 9 8 7 6 5 4 3 3 3 3 3 3 4 4 5 6 7 10 12 12 11 12 12 12 12 12 14 16 17 18 18 19 21 22 21 20 19 19 21 21 23 27 28 30 33 34 36 37 37 37 38 37 37 38 37 37 38 38 36 32 29 28 28 28 26 24 23 22 20 20 20 19 19 20 21 21 21 24 32 37 38
11 11 10 9 9 7 7 6 4 4 3 3 2 2 2 3 3 4 5 7 9 10 12 12 12 13 13 13 14 15 16 17 18 18 19 20 22 23 22 20 19 19 21 23 24 28 30 30 32 34 36 38 38 39 41 41 40 41 42 41 40 41 41 40 36 31 30 31 29 27 25 24 23 22 21 21 21 20 21 23 22 21 26 35 40
12 10 9 9 9 8 7 7 6 5 4 3 2 2 1 2 3 4 6 8 9 10 11 12 13 13 14 15 17 18 18 18 18 18 20 21 23 24 23 21 19 19 20 23 25 28 32 32 33 34 36 38 39 40 41 43 43 44 45 45 44 44 44 44 43 39 34 33 33 30 27 25 24 23 23 23 24 23 22 22 24 23 23 29 40
11 10 10 9 9 9 8 7 6 5 4 3 2 2 1 1 2 4 7 8 9 10 11 12 14 15 17 19 19 19 18 17 18 20 21 23 24 25 24 21 20 19 20 22 25 28 32 34 34 35 37 39 40 41 42 43 44 45 46 47 47 47 47 47 47 46 42 38 36 34 31 28 26 24 23 24 25 26 24 23 24 25 24 25 34
10 11 10 10 9 8 8 7 6 5 4 3 2 2 1 2 3 5 7 9 9 9 10 12 15 17 20 22 21 19 17 18 20 22 23 24 26 26 25 22 20 20 21 23 25 27 31 34 35 36 38 39 41 42 43 44 45 46 46 47 48 49 50 50 50 50 48 45 41 38 35 31 27 25 23 23 26 28 28 27 26 26 26 25 28
11 11 11 10 9 8 7 7 5 4 4 3 3 2 2 2 3 5 7 8 9 9 10 13 16 18 20 22 22 20 18 20 21 23 25 25 26 26 25 24 22 21 22 24 26 27 30 34 37 38 39 40 42 43 43 44 46 47 47 48 49 50 52 53 53 52 51 50 48 43 39 35 30 27 24 23 24 28 30 31 29 26 26 27 27
11 11 11 10 9 8 7 6 5 4 3 3 3 2 2 3 3 5 6 7 8 8 9 11 15 17 18 21 22 21 20 22 23 24 25 26 26 25 24 24 23 23 24 26 27 28 30 33 37 39 40 41 42 44 44 44 44 46 48 51 52 52 53 56 57 56 54 52 50 46 41 37 34 30 26 23 22 26 30 32 32 30 27 27 27
12 11 11 10 9 8 7 6 5 4 3 3 3 3 2 2 2 4 6 7 7 6 6 8 13 16 17 19 22 21 21 23 25 26 26 27 26 24 23 23 24 24 25 26 27 29 31 34 37 39 41 42 42 44 45 45 44 44 45 50 55 57 56 56 57 57 56 53 50 48 45 41 38 34 30 27 23 23 28 32 34 33 31 28 28
12 12 11 10 9 8 7 6 5 4 4 3 3 3 2 2 2 3 5 7 6 4 4 7 10 13 15 18 21 22 22 24 25 26 26 27 27 26 25 25 25 25 26 27 28 30 32 35 38 40 41 42 43 45 46 46 45 46 46 47 51 56 59 59 56 54 54 53 51 49 46 44 43 40 36 32 27 23 24 30 34 36 34 31 30
13 12 11 10 9 8 7 6 5 4 4 3 3 3 3 3 2 3 5 6 4 3 4 5 7 10 13 17 20 21 21 23 24 24 25 25 26 27 27 27 27 27 26 27 28 31 33 36 38 41 42 42 44 45 47 46 46 47 47 47 50 53 56 58 57 51 48 49 49 49 48 47 47 46 42 37 31 25 23 27 32 36 37 35 32
13 12 11 10 9 8 7 6 5 5 4 4 4 4 4 3 3 4 5 6 5 3 4 5 6 9 11 16 19 19 20 22 22 22 23 24 24 25 26 26 27 27 27 28 28 30 33 36 39 41 42 43 44 45 46 46 46 46 48 49 51 53 53 57 58 53 46 44 48 52 53 50 49 48 46 41 35 29 25 25 29 33 37 37 36
13 12 11 10 9 8 7 6 6 5 5 5 5 4 4 4 4 4 5 6 5 3 3 4 6 8 11 15 18 18 19 21 21 22 22 23 24 25 25 25 24 24 26 27 28 30 32 35 38 40 42 43 43 44 45 46 47 47 48 48 50 52 52 53 56 54 49 46 48 54 57 52 47 47 47 43 37 32 27 24 26 30 35 38 38
14 13 12 11 10 9 8 7 6 6 6 6 5 5 4 3 3 3 4 3 3 2 2 3 4 7 11 14 16 16 17 19 20 22 23 24 25 25 25 24 23 22 22 23 26 29 32 35 37 39 40 41 43 44 44 46 48 48 49 49 49 50 51 50 51 53 51 49 49 52 56 53 47 46 46 43 38 35 30 25 24 28 32 36 39
15 13 12 11 10 9 8 7 7 7 6 6 6 5 4 3 1 1 2 3 2 2 2 2 3 6 10 13 13 14 16 18 20 22 24 25 26 26 26 25 24 22 22 22 23 25 29 32 35 36 37 38 41 43 44 45 48 50 50 51 50 49 49 49 49 50 50 49 47 49 53 52 46 44 46 44 40 38 34 28 25 26 30 34 37
15 14 13 12 11 10 9 8 7 7 7 7 7 7 5 3 1 1 2 3 3 3 3 3 2 5 8 10 12 14 16 18 21 23 24 26 26 27 26 26 26 25 25 25 25 26 27 29 31 33 34 36 39 42 44 45 46 49 50 51 51 50 49 48 47 48 49 46 43 43 49 50 45 42 45 45 42 39 35 30 25 25 28 32 35
14 13 13 12 11 10 9 9 8 8 9 8 8 7 6 5 3 1 3 4 4 4 4 4 4 6 6 8 11 14 16 18 21 23 24 26 26 27 27 27 28 28 28 29 29 28 28 27 28 31 34 36 38 41 44 45 46 48 49 49 50 49 49 48 46 46 47 45 39 38 44 48 44 43 46 44 41 39 35 30 26 23 25 30 33
16 14 13 12 11 11 11 10 9 9 9 9 8 8 7 7 6 3 2 3 4 4 5 5 6 7 7 8 11 14 16 19 22 23 23 25 26 27 28 29 30 30 30 31 29 28 27 26 27 31 33 36 38 41 44 46 47 49 49 49 49 49 48 48 47 46 47 46 40 36 40 44 41 41 42 40 37 36 33 29 26 23 23 27 31
17 15 14 14 12 12 12 11 10 10 10 9 9 8 8 8 8 5 3 1 2 4 4 5 6 7 7 8 10 14 16 20 22 23 23 24 26 28 29 30 31 32 33 32 30 29 28 27 28 30 33 36 39 42 45 47 49 50 50 51 51 50 49 49 47 45 46 45 40 34 34 37 37 36 36 34 32 31 29 26 23 20 20 23 27
18 17 16 15 14 13 13 13 12 11 11 10 10 9 9 9 8 6 5 2 0 2 2 3 4 5 6 8 11 14 16 19 22 22 22 24 26 28 30 31 33 34 34 34 33 32 31 30 30 32 33 37 41 44 46 48 50 50 50 51 51 50 48 47 45 45 44 43 39 34 33 36 36 33 33 32 30 27 24 21 16 12 12 16 20
20 19 17 16 16 15 14 14 13 12 11 11 11 10 10 9 8 7 6 4 3 3 4 4 5 6 7 9 11 14 16 19 21 21 21 23 26 27 29 31 33 34 34 34 34 33 33 33 34 35 37 39 43 45 47 49 51 50 49 49 49 48 47 46 43 42 43 42 38 34 34 37 35 30 29 27 26 24 20 17 13 10 7 10 14
Wind_Direction
303 293 305 302 305 313 298 291 296 306 288 295 326 301 293 281 278 277 280 281 276 278 277 279 283 287 289 291 295 293 291 291 290 292 294 296 297 296 296 297 299 301 301 301 303 304 305 303 302 301 301 302 301 299 301 302 302 301 301 301 302 304 307 312 316 311 301 290 273 241 226 226 225 223 220 208 198 206 211 207 208 212 214 206 199
273 277 296 282 284 302 309 308 297 304 289 289 290 264 263 261 263 265 269 271 272 276 274 269 266 268 273 275 277 278 279 279 282 288 291 292 293 295 295 296 299 300 300 299 301 303 303 302 300 300 301 303 299 295 297 298 295 294 296 297 295 297 301 306 310 314 307 296 285 254 230 225 225 224 222 210 201 204 209 210 210 211 215 208 200
270 221 289 284 278 282 298 301 283 285 278 277 274 258 254 252 255 258 261 263 267 273 274 268 264 265 267 270 273 276 280 282 286 291 294 293 292 294 296 297 299 300 301 302 303 305 305 304 304 305 307 307 302 297 294 292 289 285 288 291 291 292 295 299 302 308 310 301 291 268 240 229 226 225 224 216 204 202 208 212 210 211 212 208 203
183 167 246 270 282 282 294 287 272 267 269 268 261 258 257 255 259 264 268 270 270 271 275 276 274 273 272 273 276 280 285 288 292 295 297 299 298 298 299 301 303 305 308 310 311 310 309 309 310 311 312 311 309 305 300 297 291 283 281 284 285 284 285 288 292 298 305 304 295 279 254 234 228 227 226 222 209 202 207 211 210 211 209 206 206
170 174 187 169 210 263 270 260 252 242 247 255 250 249 253 255 260 267 271 272 273 271 271 273 273 275 277 278 281 284 288 290 295 298 301 303 303 304 306 308 311 314 317 319 319 318 317 317 317 316 317 317 315 310 307 305 298 287 282 284 283 280 280 281 283 289 295 300 298 287 268 243 230 229 228 225 215 205 205 210 211 209 207 206 206
165 176 181 180 206 213 204 221 226 222 226 238 241 245 254 259 261 267 272 273 276 276 273 273 274 276 280 283 287 288 291 295 297 301 305 306 308 311 316 320 323 325 326 326 324 324 325 324 322 322 323 322 319 315 314 314 310 301 292 288 284 278 277 278 278 281 285 292 297 291 280 256 235 229 229 226 219 210 204 209 212 209 209 209 208
171 180 192 210 212 200 199 205 214 229 233 241 247 255 266 270 270 272 279 282 283 284 283 282 282 284 289 293 293 295 300 303 304 306 310 317 327 335 341 342 338 335 335 336 335 332 332 329 327 327 326 327 326 326 327 326 322 315 303 292 284 276 273 277 278 278 280 284 288 289 287 272 246 230 229 229 223 214 205 207 213 212 212 213 213
192 195 200 215 213 206 212 211 220 245 259 270 277 277 278 284 288 290 292 290 288 289 290 290 291 294 297 297 300 306 309 307 304 307 319 335 350 350 345 341 336 332 331 332 333 335 340 339 335 334 334 335 335 336 338 335 328 321 312 301 292 284 279 279 278 275 276 278 277 281 286 283 261 235 227 229 225 217 209 207 213 214 213 213 214
200 213 216 225 231 228 233 244 260 279 292 295 298 296 295 298 302 306 303 298 296 295 295 294 296 298 299 302 310 313 311 305 291 291 305 309 318 319 314 312 311 307 307 312 314 318 331 336 332 332 332 332 333 336 339 338 332 326 319 313 304 293 283 280 277 270 269 271 272 275 280 285 273 245 229 228 226 219 212 209 212 214 214 213 213
196 214 222 230 242 245 248 270 287 299 303 299 298 297 299 304 307 309 306 302 301 300 301 301 303 306 305 311 316 309 305 297 278 280 289 287 292 299 299 299 296 291 295 303 304 305 309 310 310 310 309 312 315 320 327 330 329 326 322 318 313 303 289 280 278 269 263 265 268 272 276 280 278 258 237 228 227 222 214 210 213 214 215 215 215
201 213 222 230 242 249 252 269 280 289 293 291 293 296 300 304 307 310 307 305 303 305 307 308 310 312 311 315 310 299 298 289 276 279 282 283 291 297 300 303 303 302 304 306 305 304 305 306 310 310 307 311 313 307 308 318 323 322 320 319 319 316 302 285 278 269 262 263 264 265 271 272 275 269 247 232 227 225 216 210 213 215 216 218 218
215 221 227 236 248 257 263 273 279 283 289 293 296 300 302 304 306 306 302 300 300 303 306 308 310 308 307 309 298 287 288 279 269 272 274 277 284 290 295 302 308 312 314 316 316 314 316 318 322 321 318 321 320 309 303 306 312 313 315 319 321 319 312 299 291 277 264 263 261 258 263 266 269 272 257 239 229 228 221 212 211 214 216 219 221
231 236 238 244 253 263 273 280 284 287 290 295 299 302 303 303 303 301 297 293 293 298 303 305 305 303 299 291 276 277 276 262 244 247 261 276 284 287 289 294 302 309 311 313 315 317 321 324 324 322 320 321 319 313 307 303 302 305 308 314 317 317 315 309 304 291 271 264 262 257 257 261 264 268 265 247 232 228 229 219 212 213 216 218 221
248 251 253 256 259 265 274 279 283 286 289 294 299 302 303 304 305 303 297 292 293 298 302 304 306 308 306 298 291 278 260 244 232 242 277 292 298 299 294 295 298 302 303 300 301 308 315 321 322 316 312 315 317 314 311 308 307 309 310 312 310 311 317 315 307 298 278 264 264 261 255 253 258 263 265 252 236 227 229 229 219 214 215 217 220
257 258 260 264 264 266 270 274 279 284 288 294 298 301 303 305 308 305 300 299 300 303 304 307 311 315 314 310 312 304 267 237 230 258 293 297 303 308 303 301 303 303 302 298 296 300 307 315 319 312 306 307 311 312 313 314 315 316 318 316 310 304 311 315 304 298 289 269 263 259 254 250 253 257 259 252 240 230 224 226 227 219 214 216 219
258 260 264 265 267 269 270 273 279 286 291 294 296 298 301 303 304 305 302 301 303 306 309 312 316 320 325 323 319 320 311 288 283 293 300 299 304 311 311 310 310 308 307 304 302 301 301 306 312 312 307 302 304 308 311 315 318 322 324 322 316 307 308 316 308 297 300 291 269 256 253 254 253 253 254 252 243 235 226 220 225 225 218 217 218
261 262 265 266 269 272 274 278 283 288 290 289 289 291 295 299 303 308 305 305 314 321 320 321 324 328 338 348 345 343 332 319 315 314 316 316 314 317 323 324 323 324 321 315 310 305 299 298 303 309 305 299 300 305 308 313 318 322 326 326 322 318 315 318 316 303 294 294 282 260 253 256 257 253 251 252 247 238 231 223 221 226 224 220 218
265 264 265 267 270 272 276 280 282 284 283 280 282 287 293 298 304 314 320 334 344 340 340 342 339 344 355 6 15 0 331 324 325 322 321 328 333 333 341 346 347 350 348 336 319 307 307 307 306 308 306 300 301 306 310 313 316 318 321 321 318 318 317 314 318 317 302 285 278 270 258 256 258 256 252 252 249 241 235 230 223 223 227 225 221
261 262 263 262 261 262 265 266 266 271 274 277 281 287 294 299 312 325 336 351 356 353 16 38 22 26 31 25 26 353 331 334 339 335 329 330 341 345 351 360 2 3 6 0 341 324 318 314 311 311 309 305 305 309 313 312 311 311 313 311 309 311 312 309 311 315 314 297 278 272 265 258 256 255 252 250 247 241 235 234 229 224 225 229 226
245 244 243 236 232 234 237 244 251 259 266 273 282 293 301 309 325 338 347 1 15 23 48 67 65 69 70 54 41 12 354 351 347 347 338 330 336 346 352 0 7 9 11 9 359 348 336 328 323 318 314 310 309 311 314 312 309 306 305 303 303 306 304 304 304 304 310 310 293 276 265 260 256 251 250 248 245 240 234 233 232 227 224 227 230
217 210 208 204 206 213 224 235 243 253 264 278 293 305 312 319 333 352 6 23 37 39 47 55 56 65 63 45 39 28 21 18 6 7 359 343 343 347 347 351 1 10 12 9 6 1 349 339 334 328 324 320 318 319 318 317 313 309 304 300 300 303 301 298 298 297 300 306 304 291 272 262 255 250 248 247 247 243 233 229 231 229 226 224 227
193 189 193 196 198 208 224 234 246 262 276 293 303 308 318 330 351 17 30 43 49 44 44 48 45 47 41 32 35 35 28 27 23 18 14 3 353 350 349 349 354 2 7 8 6 1 352 345 337 332 333 331 329 329 328 325 323 318 311 305 302 301 301 299 295 292 291 295 298 295 286 271 254 248 247 244 246 244 234 228 229 228 226 224 224
188 186 191 194 196 209 228 243 256 269 279 291 299 302 336 6 28 42 49 55 55 49 49 49 43 39 36 31 31 32 29 28 25 18 14 9 358 354 352 350 352 356 0 3 3 359 354 350 344 339 338 337 335 334 332 330 328 325 318 312 310 308 306 304 298 290 284 282 286 287 287 279 259 249 248 242 241 242 237 230 228 227 225 223 221
189 186 189 193 199 214 234 249 257 262 267 268 231 176 59 64 61 62 64 62 62 57 51 49 43 35 35 36 31 29 33 32 25 18 16 10 1 357 355 352 351 353 356 358 359 358 355 352 350 348 344 341 339 337 334 331 328 327 322 317 316 315 312 310 305 295 282 276 278 281 280 276 266 256 253 246 237 236 236 232 227 227 227 221 219
188 188 191 193 202 219 234 246 251 247 225 177 155 133 93 82 74 72 69 63 60 53 49 49 46 42 41 40 36 36 39 34 25 21 19 11 3 0 358 353 349 350 354 356 356 355 355 354 352 351 348 345 341 339 339 335 331 329 326 322 320 318 317 315 311 303 290 278 275 277 273 268 267 261 256 253 237 227 231 234 229 227 227 222 218
187 189 192 197 208 219 226 232 228 207 173 156 149 133 109 89 76 71 68 63 54 45 47 51 53 53 49 43 42 43 42 34 27 25 21 16 12 6 359 353 350 351 354 357 358 355 354 355 354 352 349 346 342 339 339 340 336 332 328 324 322 321 320 317 314 311 302 288 276 271 270 263 263 263 257 256 244 222 222 231 231 229 228 224 219
184 188 192 199 209 210 209 207 197 179 159 153 147 133 116 90 74 67 68 65 53 46 45 48 55 57 51 45 43 43 41 35 30 28 25 21 20 14 7 0 356 353 354 357 360 359 356 354 353 353 349 346 344 340 338 340 339 334 330 326 323 322 323 321 317 314 309 299 282 268 267 264 261 262 258 257 250 231 224 228 229 229 229 227 223
184 189 192 196 201 199 196 188 178 171 158 151 142 130 112 82 71 66 72 69 52 48 43 45 56 58 53 48 43 44 45 40 32 29 28 25 21 18 14 10 4 357 356 357 358 359 359 355 351 352 351 346 345 343 339 339 339 337 333 329 326 322 322 323 320 316 312 305 293 276 270 266 261 261 259 257 254 244 239 233 227 227 229 230 228
188 191 191 192 193 190 188 179 170 168 158 149 140 127 106 78 70 65 71 69 54 49 43 46 57 60 56 53 49 51 50 41 32 29 28 26 22 18 14 12 10 4 358 356 356 356 357 356 353 352 352 348 345 344 343 341 341 340 338 334 330 325 322 322 321 319 314 308 303 291 279 270 262 259 258 257 258 252 246 237 226 226 230 231 230
192 194 191 190 189 184 181 174 165 162 158 150 137 122 102 78 70 64 67 66 56 54 51 54 61 61 58 57 54 55 49 37 33 31 29 26 20 17 14 10 9 9 3 353 352 354 354 355 356 355 353 352 348 346 345 344 343 341 340 339 337 332 327 322 320 320 318 312 308 303 291 278 266 258 254 253 255 254 249 240 229 228 234 234 231
194 193 190 187 185 180 174 167 159 157 154 146 134 120 103 84 74 67 67 62 54 56 55 55 59 58 56 56 54 50 43 35 33 31 28 25 20 16 13 10 8 8 8 359 352 355 357 356 357 358 356 355 353 350 346 345 345 343 341 341 340 338 333 327 323 322 321 317 311 308 300 289 275 262 253 247 248 249 248 244 236 230 234 238 234
193 191 187 181 178 173 164 159 153 148 140 131 124 108 98 91 81 73 68 59 52 55 56 53 53 53 53 53 50 46 38 32 31 29 25 22 19 16 12 11 9 6 10 8 357 355 0 0 357 358 358 355 354 353 349 346 346 345 343 341 340 339 337 334 329 325 324 322 317 311 305 298 288 273 259 248 244 245 244 242 239 232 229 233 235
192 189 183 173 166 160 153 149 145 137 122 107 91 75 84 97 91 75 61 59 59 60 59 53 49 50 51 49 45 41 35 29 26 24 22 20 17 15 12 9 8 7 9 9 0 353 356 0 358 357 358 355 353 354 351 347 346 346 344 342 340 339 338 336 333 329 326 324 321 315 308 303 296 284 269 255 244 243 244 240 239 237 229 227 229
189 183 176 166 158 153 150 148 146 139 123 101 77 54 58 92 91 73 55 55 62 67 64 55 50 48 46 44 40 36 30 25 22 20 19 18 14 12 11 6 3 5 8 7 360 351 350 354 356 355 356 354 351 352 351 347 346 345 343 342 340 338 337 336 333 331 328 325 322 319 313 306 300 292 278 263 250 243 244 243 240 240 237 230 226
183 174 168 163 158 154 153 151 148 142 126 109 88 58 31 46 64 64 58 56 62 68 63 54 48 44 40 38 34 29 24 20 18 18 16 14 11 9 8 5 360 360 5 5 359 350 345 347 351 351 351 351 349 349 349 345 343 342 340 339 338 336 335 334 332 330 328 325 322 319 316 310 302 295 284 270 257 248 245 245 244 240 238 237 229
175 168 165 163 160 156 153 150 146 142 135 127 111 78 39 39 44 50 57 60 66 68 60 50 43 38 36 32 27 23 19 18 17 16 13 9 8 7 6 4 0 357 1 2 358 351 344 343 347 349 348 346 345 345 345 342 340 339 337 335 334 333 332 331 330 328 327 325 322 319 317 313 305 297 288 275 262 252 247 244 244 242 237 237 236
169 168 167 163 160 157 154 150 146 145 144 133 113 92 67 59 47 42 53 65 72 66 52 44 38 32 30 24 19 17 16 17 17 13 10 7 4 5 5 5 4 359 358 358 355 353 348 344 345 347 347 344 341 342 342 339 336 336 335 333 332 330 330 330 328 327 326 324 322 320 317 314 310 301 291 280 266 255 250 245 243 245 241 236 238
172 172 170 165 162 160 157 152 147 142 135 120 105 94 82 70 51 42 55 71 71 57 42 38 31 23 21 16 11 12 14 15 14 10 7 5 3 4 4 5 5 1 356 356 355 353 351 347 346 345 345 343 339 339 340 338 335 334 333 332 330 329 329 328 327 326 325 323 322 321 319 316 313 306 297 287 272 258 252 248 244 244 244 240 238
178 176 171 167 165 161 157 151 143 132 121 116 106 101 91 73 58 51 62 74 71 54 34 30 22 14 13 9 5 9 13 13 12 8 5 4 4 4 2 1 0 357 354 354 354 354 351 348 347 345 343 342 339 337 338 338 335 333 333 330 328 328 328 326 325 325 324 323 322 321 320 317 314 309 303 295 282 265 254 249 245 242 243 242 238
181 178 171 169 166 161 154 145 136 124 114 115 109 107 99 82 78 67 71 79 78 59 29 20 15 6 3 2 2 6 11 11 9 7 7 7 7 6 3 360 355 351 351 352 352 353 351 348 347 346 342 340 339 337 337 338 335 334 333 329 325 325 325 324 323 323 323 322 320 318 317 316 313 310 306 300 291 276 259 250 245 242 241 242 239
182 177 171 169 163 156 150 139 131 123 114 117 117 108 103 100 104 89 83 94 96 58 24 13 7 0 356 357 1 4 7 9 9 8 10 11 9 6 3 360 355 351 349 349 350 351 350 348 347 346 342 340 340 338 337 337 335 332 331 328 323 322 323 322 321 322 321 319 318 315 313 312 310 308 306 302 296 286 268 252 245 241 239 240 240
183 177 171 167 158 151 146 136 130 125 119 123 121 110 104 108 116 109 98 102 100 55 8 2 2 356 353 356 359 2 5 7 8 8 8 8 7 4 0 358 356 353 350 348 349 349 348 346 345 345 342 339 339 338 336 335 335 331 329 327 323 323 323 321 320 321 320 318 315 311 309 308 307 307 306 303 299 293 279 259 246 241 238 237 238
182 175 171 165 157 151 144 136 131 128 127 124 119 113 111 112 125 130 116 102 93 64 12 7 2 351 351 356 358 1 6 9 8 5 3 3 2 360 357 356 356 356 354 351 349 348 347 344 344 344 341 338 338 339 337 336 335 331 328 326 324 324 324 321 319 318 317 316 313 308 305 306 305 304 304 304 302 297 288 270 250 240 238 236 235
180 173 170 164 157 150 143 140 139 134 130 124 116 113 114 114 126 139 135 121 103 60 22 31 16 353 351 355 360 6 10 11 8 2 359 358 358 356 355 356 355 356 354 351 349 347 345 344 343 343 342 340 339 340 340 337 335 332 329 328 327 325 322 319 317 314 312 313 312 306 303 305 305 303 302 303 303 300 294 281 261 244 237 235 234
178 171 167 163 157 150 144 144 142 136 127 118 111 105 103 108 114 134 148 155 187 266 332 26 33 5 356 358 7 15 14 11 7 1 356 355 354 354 354 354 354 353 350 348 346 345 344 344 342 343 345 343 340 341 342 339 336 333 331 329 328 326 322 320 317 313 311 312 311 305 302 304 305 302 300 302 303 301 296 288 272 253 240 235 233
176 168 165 161 154 147 144 140 136 130 121 112 107 100 93 90 86 211 201 200 219 253 299 331 343 351 359 8 15 16 14 11 7 1 356 354 353 353 353 353 353 353 350 348 347 345 346 346 344 345 349 349 345 344 345 343 338 335 333 331 330 328 324 322 318 314 312 312 311 306 300 302 305 300 298 301 302 300 297 291 279 261 245 236 232
176 167 162 158 151 145 140 135 131 125 116 108 103 98 93 86 82 142 203 211 225 252 284 303 315 333 359 20 19 15 15 13 7 1 356 354 354 353 354 354 354 354 353 352 350 348 348 349 349 350 354 355 352 350 349 347 341 337 336 335 334 331 328 324 321 317 314 313 313 307 298 301 305 300 298 303 303 299 297 292 283 268 250 239 233
175 166 159 155 149 144 137 132 129 122 114 109 104 99 94 87 81 92 162 200 223 254 276 294 320 339 1 22 21 19 19 13 7 2 357 355 356 355 354 355 354 354 355 355 353 351 350 350 350 353 357 358 357 355 354 350 345 342 340 339 339 336 332 328 325 321 317 315 317 312 300 302 308 303 300 305 304 299 297 293 284 272 255 242 234
172 164 157 151 147 143 136 131 128 122 117 113 106 99 92 84 78 77 89 165 234 263 281 308 336 352 14 30 25 22 20 13 6 2 359 358 359 357 356 355 355 355 356 356 354 353 352 351 350 351 355 358 0 0 358 355 351 347 344 342 341 339 336 332 327 323 318 314 319 321 309 306 313 309 302 306 307 301 300 296 287 274 258 245 237
168 161 156 150 145 142 138 133 130 125 120 115 108 99 90 81 73 67 62 58 263 268 295 337 4 27 47 43 31 24 18 12 6 2 1 1 0 359 358 356 355 356 356 355 354 353 353 353 351 351 353 358 2 2 360 357 354 351 348 344 342 340 337 333 328 325 320 315 321 329 318 310 314 310 302 304 306 304 305 305 300 286 262 244 234
165 159 156 152 146 142 139 134 130 124 117 110 103 95 87 80 72 63 54 56 75 80 79 81 78 73 64 47 35 28 19 12 7 3 2 2 1 1 360 357 356 356 356 356 355 354 354 354 354 355 357 0 3 3 0 358 356 354 352 348 345 341 338 334 331 328 322 316 322 331 320 309 310 307 297 294 296 302 312 316 314 310 283 246 231